This demonstration page uses our WeatherBlox Daily Observations layout. Learn more.

Left ArrowRight Arrow

41.55636, -103.73856

Hourly Observations for January 30, 2021

Temp ( °F °C ) Dew Point ( °F °C ) Humidity (%) Winds ( mph kmh ) Pressure ( in mb ) Visibility ( mi km ) Precip ( " mm )
12:56 am 00:56 Mostly Cloudy 36 2.2 23 -5.2 58 58 WSW 3 6 29.58 1002 10 16.0934 0 0
1:56 am 01:56 Mostly Cloudy 37 2.6 23 -5.2 57 57 WSW 5 7 29.57 1001 10 16.0934 0 0
2:56 am 02:56 Mostly Cloudy 39 3.8 21 -6 49 49 WNW 16 26 29.57 1001 10 16.0934 0 0
3:56 am 03:56 Mostly Cloudy 40 4.2 21 -5.9 48 48 WNW 13 20 29.59 1002 10 16.0934 0 0
4:56 am 04:56 Cloudy 38 3.6 22 -5.5 52 52 WNW 10 17 29.62 1003 10 16.0934 0 0
5:56 am 05:56 Mostly Cloudy 38 3.6 23 -5 54 54 WNW 10 17 29.67 1005 10 16.0934 0 0
6:56 am 06:56 Cloudy 38 3.6 24 -4.2 57 57 NW 12 19 29.7 1006 10 16.0934 0 0
7:56 am 07:56 Mostly Cloudy 37 2.9 25 -4 61 61 WNW 14 22 29.76 1008 10 16.0934 0 0
8:56 am 08:56 Mostly Sunny 39 3.9 24 -4.6 54 54 NNW 26 43 29.79 1009 10 16.0934 0 0
9:56 am 09:56 Sunny 40 4.3 25 -3.9 56 56 NW 24 39 29.83 1010 10 16.0934 0 0
10:56 am 10:56 Sunny 44 6.4 28 -2.4 54 54 NNW 32 52 29.85 1011 10 16.0934 0 0
11:56 am 11:56 Mostly Cloudy 44 6.6 30 -1.2 58 58 NNW 29 46 29.87 1012 10 16.0934 0 0
12:56 pm 12:56 Mostly Cloudy 41 5.1 33 0.6 73 73 NW 24 39 29.9 1013 10 16.0934 0 0
1:56 pm 13:56 Mostly Cloudy 43 6.2 31 -0.4 63 63 NW 24 39 29.92 1013 10 16.0934 0 0
2:56 pm 14:56 Mostly Sunny 44 6.8 29 -1.9 54 54 NNW 21 33 29.93 1014 10 16.0934 0 0
3:58 pm 15:58 Sunny 43 5.9 28 -2.5 55 55 NW 21 33 29.97 1015 10 16.0934 0 0
4:58 pm 16:58 Cloudy 39 4 28 -2.2 64 64 NNW 15 24 30.05 1017 10 16.0934 0 0
5:58 pm 17:58 Mostly Cloudy 34 1.3 27 -2.9 74 74 NNW 9 15 30.14 1021 10 16.0934 0 0
6:58 pm 18:58 Mostly Clear 33 0.3 27 -2.8 80 80 WNW 8 13 30.19 1022 10 16.0934 0 0
7:58 pm 19:58 Partly Cloudy 32 -0.2 28 -2.3 86 86 N 7 11 30.23 1024 10 16.0934 0 0
8:58 pm 20:58 Mostly Cloudy 33 0.6 30 -1.3 87 87 NNW 3 6 30.25 1024 10 16.0934 0 0
9:58 pm 21:58 Cloudy 33 0.5 30 -1 90 90 NNW 7 11 30.27 1025 10 16.0934 0 0
10:58 pm 22:58 Partly Cloudy 31 -0.7 29 -1.9 92 92 WNW 9 15 30.31 1026 10 16.0934 0 0
11:58 pm 23:58 Partly Cloudy 29 -1.6 28 -2.5 94 94 NW 5 7 30.35 1028 10 16.0934 0 0

Powered by AerisWeather